Regional Weather Roundup
Issued by NWS

Home | Current Version | Previous Version | Text Only | Print | Product List | Glossary Off
Versions: 1 2 3 4 5 6 7 8 9 10 11 12 13 14 15 16 17 18 19 20 21 22 23 24 25 26 27 28 29 30 31 32 33 34 35 36 37 38 39 40 41 42 43 44 45 46 47 48 49 50

000
ASUS43 KMPX 201310
RWRMN
WEATHER ROUNDUP FOR MINNESOTA
NATIONAL WEATHER SERVICE TWIN CITIES/CHANHASSEN MN
700 AM CST SAT DEC 20 2014


NOTE: "FAIR" INDICATES FEW OR NO CLOUDS BELOW 12,000 FEET WITH NO
SIGNIFICANT WEATHER AND/OR OBSTRUCTIONS TO VISIBILITY. N/A MEANS
CURRENT SKY AND/OR WEATHER CONDITIONS ARE NOT AVAILABLE.

MNZ060>063-068>070-201400-
   Twin Cities Metro

CITY           SKY/WX    TMP DP  RH WIND       PRES   REMARKS
TWIN CITIES    CLOUDY    30  25  81 SE7       30.16R HAZE    WCI  23
ST PAUL        CLOUDY    30  26  85 SE5       30.17S WCI  25
CRYSTAL        CLOUDY    31  27  85 S5        30.14R WCI  26
BLAINE         CLOUDY    30  30 100 S6        30.15R FOG     WCI  24
LAKEVILLE      MOCLDY    28  27  93 S5        30.15S FOG     WCI  23
EDEN PRAIRIE   CLOUDY    30  27  88 S7        30.14R FOG     WCI  23
SOUTH ST PAUL  CLOUDY    31  27  85 S3        30.16R
LAKE ELMO      CLOUDY    30  28  93 SE6       30.16S WCI  24
$$
MNZ001>005-007-008-013>017-022>024-027-028-201400-
   Northwest Minnesota

CITY           SKY/WX    TMP DP  RH WIND       PRES   REMARKS
BEMIDJI          N/A     29  28  97 S7        30.02R FOG     WCI  22
HALLOCK        CLOUDY    28  27  93 CALM      29.99S FOG
ROSEAU         CLOUDY    28  25  86 SE5       30.00F HAZE    WCI  23
WARROAD        CLOUDY    27  25  93 SE5       30.01F FOG     WCI  21
THIEF RVR FALL CLOUDY    28  27  93 S7        30.00S WCI  21
CROOKSTON      CLOUDY    28  28 100 SW8       30.02R FOG     WCI  20
FOSSTON        CLOUDY    27  27 100 S12       30.01S FOG     WCI  16
DETROIT LAKES  CLOUDY    30  30 100 S8        30.02S FOG     WCI  23
MOORHEAD       CLOUDY    30  30 100 S7        30.03S WCI  23
PARK RAPIDS    CLOUDY    30  28  92 S13       30.02F FOG     WCI  20
MAHNOMEN       CLOUDY    28  27  96 S10       30.01S WCI  19
$$
MNZ006-009>011-018-025>026-201400-
   North Central Minnesota

CITY           SKY/WX    TMP DP  RH WIND       PRES   REMARKS
BAUDETTE       CLOUDY    27  26  96 S3        30.02S FOG
FLAG ISLAND    CLOUDY    27  25  93 S10       30.01F FOG     WCI  17
INTL FALLS     LGT SNOW  26  24  92 VRB5      30.05R FOG     WCI  20
WASKISH        CLOUDY    28  28 100 CALM      30.03S FOG
BIG FORK       CLOUDY    28  27  93 S6        30.05S FOG     WCI  22
LONGVILLE      CLOUDY    28  28 100 S6        30.05S FOG     WCI  22
GRAND RAPIDS   CLOUDY    27  25  93 S10       30.06S WCI  17
CRANE LAKE     LGT SNOW  25  25 100 SE3       30.10S
ORR            MIX PCPN  25  21  86 SE5       30.05S WCI  19
COOK           LGT SNOW  25  25 100 SE7       30.08S WCI  17
WALKER         CLOUDY    29  28  96 S6        30.03S FOG     WCI  23
$$
MNZ012-019>021-037-201400-
   Northeast Minnesota

CITY           SKY/WX    TMP DP  RH WIND       PRES   REMARKS
DULUTH         LGT SNOW  26  23  88 S7        30.11S FOG     WCI  18
ELY            LGT SNOW  25  25 100 S5        30.10S WCI  19
HIBBING        LGT SNOW  26  23  88 SE6       30.08S FOG     WCI  19
EVELETH        LGT SNOW  27  25  93 S6        30.10S WCI  20
DULUTH HARBOR  CLOUDY    28  25  86 CALM      30.17S
TWO HARBORS    CLOUDY    30  25  80 S2        30.13S
SILVER BAY     CLOUDY    28  27  93 CALM      30.13S FOG
GRAND MARAIS     N/A     32  27  81 S9        30.18S WCI  24
G MARAIS ARPRT CLOUDY    25  21  86 S3        30.12S FOG
$$
MNZ029>031-032-039>041-046>048-054>057-064-201400-
   West Central Minnesota

CITY           SKY/WX    TMP DP  RH WIND       PRES   REMARKS
FERGUS FALLS   CLOUDY    28  28 100 S10       30.06S FOG     WCI  19
WHEATON        CLOUDY    28  27  93 S6        30.06S WCI  22
MORRIS         CLOUDY    30  28  93 S13       30.04S FOG     WCI  20
ALEXANDRIA     CLOUDY    29  27  92 S9        30.05F FOG     WCI  20
ELBOW LAKE     CLOUDY    28  28  98 S9        30.04S FOG     WCI  20
WADENA         CLOUDY    28  27  93 S9        30.04S FOG     WCI  20
GLENWOOD       CLOUDY    28  28 100 S12       30.06F FOG     WCI  18
APPLETON       CLOUDY    32  28  86 S6        30.06S WCI  26
BENSON         CLOUDY    30  28  93 S9        30.06F FOG     WCI  22
ORTONVILLE     CLOUDY    30  27  86 S7        30.04S FOG     WCI  23
MADISON        CLEAR     34  32  93 S6        30.05S FOG     WCI  29
WILLMAR        CLOUDY    32  28  86 S5        30.10S FOG     WCI  27
$$
MNZ033>034-036-042>043-049>051-058-059-201400-
   Central Minnesota

CITY           SKY/WX    TMP DP  RH WIND       PRES   REMARKS
ST CLOUD       CLOUDY    32  29  88 S10       30.11S FOG     WCI  24
SAUK CENTRE    CLOUDY    29  28  94 S12       30.08S FOG     WCI  20
PAYNESVILLE    CLOUDY    28  26  94 SE9G17    30.09F WCI  19
AITKIN         CLOUDY    30  27  86 S7        30.08R HAZE    WCI  23
PINE RIVER     CLOUDY    28  28 100 S8        30.09S FOG     WCI  20
BRAINERD       CLOUDY    30  28  92 S9        30.08S FOG     WCI  22
STAPLES        CLOUDY    28  28 100 S8        30.06S FOG     WCI  20
LONG PRAIRIE   CLOUDY    30  28  93 S13       30.07S FOG     WCI  20
LITTLE FALLS   CLOUDY    32  28  86 S6        30.09S FOG     WCI  26
LITCHFIELD     CLOUDY    30  30 100 S5        30.11F WCI  25
BUFFALO        CLOUDY    30  28  92 S6        30.14S FOG     WCI  24
MAPLE LAKE     CLOUDY    31  31  99 S6        30.13S FOG     WCI  25
$$
MNZ037-044-045-052-053-201400-
   East Central Minnesota

CITY           SKY/WX    TMP DP  RH WIND       PRES   REMARKS
PRINCETON      CLOUDY    30  28  93 SE7       30.13S FOG     WCI  23
MORA           CLOUDY    28  25  86 S5        30.14S WCI  23
CAMBRIDGE      CLOUDY    30  23  74 SE3       30.13S HAZE
RUSH CITY      CLOUDY    28  26  89 SE5       30.15S WCI  23
MOOSE LAKE     CLOUDY    28  27  93 CALM      30.11S FOG
HINCKLEY       CLOUDY    30  28  93 CALM      30.13F
CLOQUET        CLOUDY    27  25  93 SE3       30.12S FOG
MCGREGOR       CLOUDY    28  28 100 S9        30.10S WCI  20
$$
MNZ071>073-080-081-089-090-097-098-201400-
   Southwest Minnesota

CITY           SKY/WX    TMP DP  RH WIND       PRES   REMARKS
MONTEVIDEO     CLOUDY    30  30 100 SW8       30.07F WCI  23
GRANITE FALLS  CLOUDY    31  29  90 S12       30.09F WCI  22
CANBY          CLOUDY    31  29  92 S8        30.06S FOG     WCI  24
MARSHALL       CLOUDY    30  27  86 S13       30.07F WCI  20
REDWOOD FALLS  CLOUDY    32  28  85 S10       30.10S WCI  24
OLIVIA         CLOUDY    32  30  93 S8        30.09F WCI  25
PIPESTONE      CLOUDY    30  28  93 S3        30.03F FOG
WINDOM         CLOUDY    28  28 100 SE5       30.09F FOG     WCI  23
WORTHINGTON    CLOUDY    28  27  93 S9        30.08  WCI  20
JACKSON        CLOUDY    30  28  93 S7        30.10F FOG     WCI  23
TRACY          CLOUDY    32  29  91 S7        30.08S WCI  25
SLAYTON        CLOUDY    30  29  99 S3        30.06F FOG
$$
MNZ065>067-074>077-082>085-091>093-201400-
   South Central Minnesota

CITY           SKY/WX    TMP DP  RH WIND       PRES   REMARKS
MANKATO        CLOUDY    30  27  86 S8        30.14R WCI  23
NEW ULM        CLOUDY    30  28  93 S9        30.13S WCI  22
ST JAMES       CLOUDY    30  28  93 S5        30.15R WCI  25
FAIRMONT       CLOUDY    28  25  86 S10       30.13R WCI  19
GLENCOE        CLOUDY    32  31  99 S6        30.13R FOG     WCI  26
FARIBAULT      CLOUDY    30  28  93 S6        30.15S FOG     WCI  24
OWATONNA       CLOUDY    28  27  93 S8        30.15S FOG     WCI  20
WASECA         CLOUDY    30  28  93 SE8       30.16S FOG     WCI  23
ALBERT LEA     FOG       28  28 100 S6        30.15R VSB 1/4 WCI  22
$$
MNZ078>079-086>088-094>096-201400-
   Southeast Minnesota

CITY           SKY/WX    TMP DP  RH WIND       PRES   REMARKS
ROCHESTER      CLOUDY    27  25  92 S8        30.16S FOG     WCI  19
RED WING       MOCLDY    28  25  86 SE5       30.17S WCI  23
STANTON        CLOUDY    31  27  87 S8        30.15R FOG     WCI  23
DODGE CENTER   CLOUDY    28  28 100 S8        30.15R FOG     WCI  20
WINONA         CLOUDY    30  27  86 SE3       30.21F
AUSTIN         FOG       27  27 100 S6        30.16R VSB 3/4 WCI  20
PRESTON        CLOUDY    27  25  93 S7        30.18R FOG     WCI  19
$$
ABBREVIATIONS USED IN REMARKS
   TC - TEMPERATURES IN CELSIUS
  WCI - WIND CHILL INDEX
   HX - HEAT INDEX
  VSB - VISIBILITY
$$


USA.gov is the U.S. government's official web portal to all federal, state and local government web resources and services.